Regional Weather Roundup
Issued by NWS Sioux Falls, SD

Home | Current Version | Previous Version | Text Only | Print | Product List | Glossary On
Versions: 1 2 3 4 5 6 7 8 9 10 11 12 13 14 15 16 17 18 19 20 21 22 23 24 25 26 27 28 29 30 31 32 33 34 35 36 37 38 39 40 41 42 43 44 45 46 47 48 49 50
000
ASUS43 KFSD 240702
RWRFSD

WEATHER ROUNDUP FOR SE SOUTH DAKOTA/SW MINNESOTA/NW IOWA
NATIONAL WEATHER SERVICE SIOUX FALLS SD
100 AM CST MON NOV 24 2014

NOTE: "FAIR" INDICATES FEW OR NO CLOUDS BELOW 12,000 FEET WITH NO
SIGNIFICANT WEATHER AND OR OBSTRUCTIONS TO VISIBILITY.


SDZ038>040-050-052>070-240800-
SOUTHEAST SOUTH DAKOTA

CITY           SKY/WX    TMP DP  RH WIND       PRES   REMARKS
CHAMBERLAIN    NOT AVBL
HURON          CLOUDY    21  12  68 NW28      29.62R WCI   3
MADISON        CLOUDY    18  14  86 NW26G38   29.53S WCI  -1
MITCHELL       CLOUDY    25  17  72 NW25G32   29.62F WCI   9
SIOUX FALLS    CLOUDY    23  15  71 NW23G35   29.52S WCI   7
WINNER         CLOUDY    27  18  69 NW28G35   29.66S WCI  11
YANKTON        CLOUDY   N/A N/A N/A NW26G35   29.57F
$$

MNZ071-072-080-081-089-090-097-098-240800-
SOUTHWEST MINNESOTA

CITY           SKY/WX    TMP DP  RH WIND       PRES   REMARKS
FAIRMONT       CLOUDY    27  19  74 NW28G36   29.39S WCI  11
JACKSON        CLOUDY    27  23  86 NW26G35   29.42F WCI  11
LUVERNE        CLOUDY    27  19  74 NW18G28   29.49F WCI  13
MARSHALL       CLOUDY    21  16  79 NW28G35   29.48F WCI   3
MONTEVIDEO     CLOUDY    21  19  93 N23G31    29.49F WCI   5
PIPESTONE      CLOUDY    21  16  79 NW17G29   29.48F WCI   7
REDWOOD FALLS  CLOUDY    25  22  88 NW23G36   29.44F WCI  10
TRACY          CLOUDY    24  21  90 NW25      29.47F WCI   7
WINDOM         CLOUDY    25  21  86 NW26G33   29.43S WCI   9
WORTHINGTON    CLOUDY    25  19  80 NW25      29.45F WCI   9
$$

IAZ001>003-012>014-020>022-031-032-NEZ013-014-SDZ071-240800-
NORTHWEST IOWA

CITY           SKY/WX    TMP DP  RH WIND       PRES   REMARKS
DENISON        CLOUDY    28  21  74 NW21G31   29.46F WCI  15
ESTHERVILLE    CLOUDY    26  22  84 NW26G38   29.42S WCI  10
SIOUX CITY     CLOUDY    29  20  69 NW23G37   29.52S WCI  15
SPENCER        CLOUDY    28  20  71 NW22G35   29.44F WCI  14
$$

ABBREVIATIONS USED IN REMARKS
   TC - TEMPERATURE IN CELSIUS
  WCI - WIND CHILL INDEX
   HX - HEAT INDEX
  VSB - VISIBILITY



USA.gov is the U.S. government's official web portal to all federal, state and local government web resources and services.